Regional Weather Roundup
Issued by NWS

Home | Current Version | Previous Version | Graphics & Text | Print | Product List | Glossary On
Versions: 1 2 3 4 5 6 7 8 9 10 11 12 13 14 15 16 17 18 19 20 21 22 23 24 25 26 27 28 29 30 31 32 33 34 35 36 37 38 39 40 41 42 43 44 45 46 47 48 49 50
000
ASUS43 KLSX 301010
RWRMO

WEATHER SUMMARY FOR MISSOURI
NATIONAL WEATHER SERVICE SPRINGFIELD MO
500 AM CDT SAT APR 30 2016

NOTE: "FAIR" INDICATES FEW OR NO CLOUDS BELOW 12,000 FEET WITH NO
       SIGNIFICANT WEATHER AND/OR OBSTRUCTIONS TO VISIBILITY.
       CURRENT SKY AND/OR WEATHER CONDITIONS ARE NOT AVAILABLE FOR
       CHILLICOTHE AND FARMINGTON.

MOZ001>031-035>038-043-044-053-054-301100-
...NORTHERN AND WESTERN MISSOURI...

CITY           SKY/WX    TMP DP  RH WIND       PRES   REMARKS
KANSAS CTY INT CLOUDY    54  53  97 E14       29.65F FOG
KANSAS C DTWN  CLOUDY    57  55  93 E9        29.64F FOG
LEE`S SUMMIT   CLOUDY    58  57  97 E10       29.66F
ST JOSEPH      RAIN      51  50  96 E13       29.66F FOG
CHILLICOTHE      N/A     53  50  89 E10       29.74F
KIRKSVILLE     LGT RAIN  49  46  90 E17G25    29.79F FOG

$$
MOZ066>068-077>081-088>096-101>105-301100-
...SOUTHWEST MISSOURI...

CITY           SKY/WX    TMP DP  RH WIND       PRES   REMARKS
SPRINGFIELD    CLOUDY    62  58  86 S7        29.65R
JOPLIN         CLOUDY    61  60  97 E7        29.64F

$$
MOZ032>034-039>042-045>050-055>058-069>072-301100-
...CENTRAL MISSOURI...

CITY           SKY/WX    TMP DP  RH WIND       PRES   REMARKS
COLUMBIA       LGT RAIN  58  56  93 E20G28    29.71F FOG
JEFFERSON CITY HVY RAIN  58  57  97 E8        29.74F FOG
ROLLA          LGT RAIN  57  56  96 E14       29.72F
SEDALIA        CLOUDY    59  58  96 SE15      29.68F
WHITEMAN AFB   CLOUDY    58  58 100 E9        29.65F
WARRENSBURG    CLOUDY    59  55  88 E8        29.67F
OSAGE BEACH    MOCLDY    57  50  77 E9        29.70F

$$
MOZ051-052-059>065-301100-
...EAST CENTRAL MISSOURI...

CITY           SKY/WX    TMP DP  RH WIND       PRES   REMARKS
ST LOUIS INTL  LGT RAIN  59  56  89 E15       29.84F FOG
SPIRIT OF STL  LGT RAIN  58  57  97 E8        29.82F
ST CHARLES     LGT RAIN  57  57 100 E20       29.83F FOG

$$
MOZ072>076-082>087-097>100-106>115-301100-
...SOUTH CENTRAL AND SOUTHEAST MISSOURI...

CITY           SKY/WX    TMP DP  RH WIND       PRES   REMARKS
CAPE GIRARDEAU RAIN      59  58  96 E7        29.86S FOG
FARMINGTON     RAIN      58  57  97 E6        29.83F
POPLAR BLUFF   RAIN      61  59  93 E10       29.83S FOG
WEST PLAINS    LGT RAIN  60  57  89 E7        29.76F

$$




USA.gov is the U.S. government's official web portal to all federal, state and local government web resources and services.